CW6132 Weather Reports


Display with metric or nautical units.
time (UTC)temp
F
wind
direction
speed
MPH
gust
MPH
rain 1hr
in
rain 24hr
in
rain mn
in
humidity
%
barometer
mb
20260505195704 83 294 1.0 2.0 0.00 0.00 0.00 78 1006.8
20260505195204 83 279 1.0 2.0 0.00 0.00 0.00 77 1006.8
20260505194704 84 273 2.0 5.0 0.00 0.00 0.00 77 1006.8
20260505194204 84 324 1.0 5.0 0.00 0.00 0.00 76 1006.9
20260505193704 85 318 1.0 3.0 0.00 0.00 0.00 75 1006.9
20260505192204 84 308 1.0 3.0 0.00 0.00 0.00 76 1007.1
20260505191706 84 298 1.0 5.0 0.00 0.00 0.00 77 1007.0
20260505191204 84 226 1.0 3.0 0.00 0.00 0.00 77 1007.1
20260505190703 83 287 1.0 2.0 0.00 0.00 0.00 77 1007.1
20260505190204 83 342 1.0 2.0 0.00 0.00 0.00 78 1007.2
20260505185704 82 244 1.0 5.0 0.00 0.00 0.00 79 1007.2
20260505184704 82 137 1.0 3.0 0.00 0.00 0.00 79 1007.4
20260505184204 82 79 0.0 2.0 0.00 0.00 0.00 79 1007.3
20260505183703 82 304 1.0 3.0 0.00 0.00 0.00 80 1007.3
20260505183204 82 316 1.0 5.0 0.00 0.00 0.00 79 1007.3
20260505182704 82 269 1.0 3.0 0.00 0.00 0.00 79 1007.4
20260505182204 82 262 1.0 3.0 0.00 0.00 0.00 78 1007.4
20260505181704 82 282 0.0 2.0 0.00 0.00 0.00 79 1007.4
20260505180704 82 178 0.0 3.0 0.00 0.00 0.00 81 1007.6
20260505180204 82 297 1.0 3.0 0.00 0.00 0.00 80 1007.6
20260505175704 82 287 1.0 2.0 0.00 0.00 0.00 81 1007.7
20260505175204 81 293 1.0 2.0 0.00 0.00 0.00 81 1007.6
20260505174704 81 188 1.0 2.0 0.00 0.00 0.00 82 1007.7
20260505174204 81 289 1.0 2.0 0.00 0.00 0.00 82 1007.7
20260505173205 81 212 1.0 1.0 0.00 0.00 0.00 82 1007.9
20260505172704 80 274 1.0 1.0 0.00 0.00 0.00 82 1007.9
20260505172205 80 285 1.0 3.0 0.00 0.00 0.00 83 1007.8
20260505171703 80 261 1.0 5.0 0.00 0.00 0.00 83 1007.8
20260505171204 80 79 1.0 3.0 0.00 0.00 0.00 82 1007.9
20260505170705 80 281 1.0 2.0 0.00 0.00 0.00 81 1008.0
20260505170204 80 300 0.0 2.0 0.00 0.00 0.00 82 1008.0
20260505165704 80 312 0.0 1.0 0.00 0.00 0.00 82 1008.0
20260505165204 80 280 1.0 2.0 0.00 0.00 0.00 82 1008.1
20260505164704 80 333 1.0 2.0 0.00 0.00 0.00 82 1008.1
20260505164204 80 272 0.0 3.0 0.00 0.00 0.00 82 1008.0
20260505163204 80 280 1.0 3.0 0.00 0.00 0.00 83 1008.0
20260505162704 80 273 0.0 2.0 0.00 0.00 0.00 83 1007.9
20260505162204 79 312 0.0 2.0 0.00 0.00 0.00 83 1007.9
20260505161706 79 284 1.0 3.0 0.00 0.00 0.00 83 1007.9
20260505161204 79 274 1.0 2.0 0.00 0.00 0.00 83 1007.8
20260505160704 79 281 1.0 3.0 0.00 0.00 0.00 83 1007.8
20260505160204 79 254 1.0 2.0 0.00 0.00 0.00 83 1007.8
20260505153204 79 340 1.0 2.0 0.00 0.00 0.00 83 1007.6
20260505152204 79 284 1.0 3.0 0.00 0.00 0.00 84 1007.6
20260505151204 79 245 1.0 3.0 0.00 0.00 0.00 83 1007.6
20260505150705 79 322 1.0 3.0 0.00 0.00 0.00 83 1007.6
20260505150204 79 300 1.0 3.0 0.00 0.00 0.00 83 1007.5
20260505140204 76 248 0.0 2.0 0.00 0.00 0.00 87 1007.7
20260505130204 75 297 0.0 3.0 0.00 0.00 0.00 89 1007.4
20260505124704 74 284 1.0 2.0 0.00 0.00 0.00 90 1007.3
20260505124204 74 286 0.0 2.0 0.00 0.00 0.00 91 1007.3
20260505123705 74 292 1.0 2.0 0.00 0.00 0.00 91 1007.3
20260505123204 74 261 0.0 2.0 0.00 0.00 0.00 91 1007.3
20260505122704 74 273 0.0 2.0 0.00 0.00 0.00 91 1007.2
20260505122203 74 319 1.0 2.0 0.00 0.00 0.00 90 1007.0
20260505121704 74 266 0.0 2.0 0.00 0.00 0.00 90 1006.8
20260505121204 74 271 0.0 2.0 0.00 0.00 0.00 90 1006.8
20260505120704 74 338 1.0 3.0 0.00 0.00 0.00 90 1006.7
20260505120204 74 281 1.0 2.0 0.00 0.00 0.00 90 1006.8
20260505115704 73 281 1.0 2.0 0.00 0.00 0.00 90 1007.0
20260505115205 73 268 0.0 2.0 0.00 0.00 0.00 90 1007.1
20260505114203 73 289 0.0 1.0 0.00 0.00 0.00 91 1007.1
20260505113704 73 309 0.0 2.0 0.00 0.00 0.00 91 1007.1
20260505113203 73 278 0.0 2.0 0.00 0.00 0.00 91 1006.9
20260505112704 73 274 0.0 2.0 0.00 0.00 0.00 90 1006.9
20260505112204 73 264 1.0 2.0 0.00 0.00 0.00 90 1006.9
20260505111704 73 38 1.0 2.0 0.00 0.00 0.00 90 1006.9
20260505111204 73 254 1.0 2.0 0.00 0.00 0.00 90 1006.8
20260505110704 73 261 1.0 2.0 0.00 0.00 0.00 90 1006.8
20260505110204 73 308 1.0 2.0 0.00 0.00 0.00 90 1006.9
20260505102204 73 21 1.0 2.0 0.00 0.00 0.00 90 1006.9
20260505101704 73 286 0.0 2.0 0.00 0.00 0.00 90 1006.9
20260505101204 73 255 1.0 2.0 0.00 0.00 0.00 90 1007.1
20260505100704 73 275 0.0 2.0 0.00 0.00 0.00 90 1007.1
20260505100206 73 266 1.0 2.0 0.00 0.00 0.00 90 1007.1
20260505095704 73 279 1.0 3.0 0.00 0.00 0.00 90 1006.9
20260505095204 72 220 0.0 3.0 0.00 0.00 0.00 90 1006.8
20260505094704 72 292 0.0 2.0 0.00 0.00 0.00 90 1006.9
20260505094204 72 266 1.0 2.0 0.00 0.00 0.00 90 1007.0
20260505093704 72 295 0.0 2.0 0.00 0.00 0.00 90 1006.9
20260505093204 72 283 0.0 3.0 0.00 0.00 0.00 90 1007.0
20260505092704 72 280 1.0 2.0 0.00 0.00 0.00 90 1007.1
20260505092204 72 308 1.0 2.0 0.00 0.00 0.00 89 1007.2
20260505091704 72 283 0.0 2.0 0.00 0.00 0.00 89 1007.2
20260505091204 72 265 1.0 3.0 0.00 0.00 0.00 89 1007.3
20260505090703 72 280 1.0 1.0 0.00 0.00 0.00 90 1007.2
20260505085204 72 306 0.0 2.0 0.00 0.00 0.00 90 1007.3
20260505084704 72 280 0.0 2.0 0.00 0.00 0.00 90 1007.2
20260505084203 71 306 0.0 2.0 0.00 0.00 0.00 90 1007.3
20260505083204 71 271 0.0 1.0 0.00 0.00 0.00 90 1007.2
20260505082704 71 290 0.0 2.0 0.00 0.00 0.00 90 1007.4
20260505082204 71 253 0.0 2.0 0.00 0.00 0.00 90 1007.4
20260505081704 71 253 1.0 1.0 0.00 0.00 0.00 89 1007.6
20260505081204 71 295 1.0 5.0 0.00 0.00 0.00 89 1007.5
20260505080704 71 252 0.0 5.0 0.00 0.00 0.00 89 1007.5
20260505080204 71 258 1.0 2.0 0.00 0.00 0.00 89 1007.5
20260505075704 71 207 0.0 2.0 0.00 0.00 0.00 89 1007.6
20260505075204 71 281 0.0 1.0 0.00 0.00 0.00 89 1007.5
20260505074705 71 253 0.0 1.0 0.00 0.00 0.00 89 1007.6
20260505073704 71 296 1.0 2.0 0.00 0.00 0.00 89 1007.7
20260505073204 71 268 1.0 2.0 0.00 0.00 0.00 89 1007.7
20260505072704 71 289 1.0 2.0 0.00 0.00 0.00 89 1007.8
20260505072204 71 321 1.0 2.0 0.00 0.00 0.00 88 1007.8
20260505071706 71 268 1.0 2.0 0.00 0.00 0.00 88 1007.8
20260505071204 71 354 1.0 2.0 0.00 0.00 0.00 88 1007.8
20260505070704 71 9 1.0 2.0 0.00 0.00 0.00 88 1007.9
20260505070204 71 5 0.0 2.0 0.00 0.00 0.00 88 1007.9
20260505065704 71 317 1.0 2.0 0.00 0.00 0.00 88 1007.9
20260505065205 71 298 0.0 2.0 0.00 0.00 0.00 88 1008.0
20260505064704 71 276 0.0 2.0 0.00 0.00 0.00 88 1008.2
20260505064203 71 261 1.0 2.0 0.00 0.00 0.00 87 1008.2
20260505063704 71 247 1.0 3.0 0.00 0.00 0.00 87 1008.3
20260505063204 71 325 0.0 2.0 0.00 0.00 0.00 87 1008.5
20260505062704 71 302 0.0 1.0 0.00 0.00 0.00 87 1008.5
20260505062204 71 262 1.0 3.0 0.00 0.00 0.00 87 1008.6
20260505061204 71 249 0.0 1.0 0.00 0.00 0.00 87 1008.7
20260505060704 71 272 1.0 2.0 0.00 0.00 0.00 86 1008.7
20260505060204 71 332 1.0 2.0 0.00 0.00 0.00 86 1008.7
20260505055204 71 281 1.0 2.0 0.00 0.00 0.00 86 1008.6
20260505054204 71 304 1.0 2.0 0.00 0.00 0.00 86 1008.8
20260505053704 71 290 0.0 2.0 0.00 0.00 0.00 86 1008.9
20260505053204 71 282 1.0 2.0 0.00 0.00 0.00 86 1009.0
20260505052705 71 259 1.0 2.0 0.00 0.00 0.00 86 1008.9
20260505052205 71 297 1.0 1.0 0.00 0.00 0.00 85 1009.0
20260505051704 71 260 1.0 3.0 0.00 0.00 0.00 85 1008.9
20260505051204 71 314 1.0 5.0 0.00 0.00 0.00 85 1008.9
20260505050704 71 276 1.0 5.0 0.00 0.00 0.00 85 1008.9
20260505050204 71 290 1.0 2.0 0.00 0.00 0.00 85 1009.0
20260505041704 72 293 0.0 3.0 0.00 0.00 0.00 83 1009.1
20260505040704 72 298 0.0 2.0 0.00 0.00 0.00 82 1009.4
20260505040203 72 293 1.0 3.0 0.00 0.00 0.00 82 1009.3
20260505035704 72 294 1.0 2.0 0.00 0.00 0.00 82 1009.2
20260505035204 72 250 1.0 2.0 0.00 0.00 0.00 81 1009.4
20260505034703 73 292 1.0 2.0 0.00 0.00 0.00 81 1009.5
20260505034204 73 299 1.0 3.0 0.00 0.00 0.00 81 1009.4
20260505033705 73 275 1.0 1.0 0.00 0.00 0.00 80 1009.5
20260505033204 73 293 1.0 2.0 0.00 0.00 0.00 80 1009.6
20260505032705 73 263 1.0 2.0 0.00 0.00 0.00 79 1009.4
20260505032205 74 243 1.0 3.0 0.00 0.00 0.00 79 1009.4
20260505031705 74 286 1.0 2.0 0.00 0.00 0.00 78 1009.4
20260505031204 74 354 1.0 2.0 0.00 0.00 0.00 78 1009.4
20260505030704 74 280 1.0 2.0 0.00 0.00 0.00 78 1009.5
20260505025704 74 249 1.0 5.0 0.00 0.00 0.00 78 1009.4
20260505025204 74 256 1.0 2.0 0.00 0.00 0.00 77 1009.5
20260505024704 74 284 1.0 3.0 0.00 0.00 0.00 77 1009.4
20260505024205 74 224 1.0 3.0 0.00 0.00 0.00 77 1009.3
20260505023704 74 288 0.0 2.0 0.00 0.00 0.00 77 1009.4
20260505023204 74 327 1.0 3.0 0.00 0.00 0.00 77 1009.3
20260505022204 74 278 1.0 3.0 0.00 0.00 0.00 77 1009.3
20260505021704 74 270 1.0 3.0 0.00 0.00 0.00 77 1009.3
20260505021205 74 241 1.0 2.0 0.00 0.00 0.00 77 1009.2
20260505020705 74 299 1.0 3.0 0.00 0.00 0.00 77 1009.2
20260505020204 74 308 1.0 2.0 0.00 0.00 0.00 77 1009.2
20260505015704 74 166 1.0 3.0 0.00 0.00 0.00 77 1009.1
20260505015204 74 290 0.0 1.0 0.00 0.00 0.00 76 1009.1
20260505014704 74 303 1.0 3.0 0.00 0.00 0.00 76 1009.1
20260505014204 74 288 1.0 2.0 0.00 0.00 0.00 76 1009.0
20260505013704 74 306 1.0 3.0 0.00 0.00 0.00 76 1009.1
20260505013204 75 267 1.0 6.0 0.00 0.00 0.00 76 1009.0
20260505012704 75 265 1.0 3.0 0.00 0.00 0.00 75 1008.8
20260505012204 75 94 1.0 2.0 0.00 0.00 0.00 74 1008.9
20260505011704 75 232 1.0 3.0 0.00 0.00 0.00 74 1009.0
20260505010204 75 287 1.0 3.0 0.00 0.00 0.00 73 1008.9
20260505005204 76 318 1.0 6.0 0.00 0.00 0.00 73 1008.8
20260505004704 76 275 1.0 5.0 0.00 0.00 0.00 73 1008.6
20260505004204 76 216 2.0 6.0 0.00 0.00 0.00 72 1008.6
20260505003704 76 298 1.0 3.0 0.00 0.00 0.00 72 1008.6
20260505003204 76 349 1.0 5.0 0.00 0.00 0.00 72 1008.6
20260505002704 76 305 1.0 5.0 0.00 0.00 0.00 72 1008.7
20260505002206 76 225 1.0 6.0 0.00 0.00 0.00 72 1008.6
20260505001704 76 310 1.0 5.0 0.00 0.00 0.00 72 1008.6
20260505001204 77 342 2.0 5.0 0.00 0.00 0.00 71 1008.7
20260505000704 77 271 1.0 8.0 0.00 0.00 0.00 71 1008.7
20260504235704 77 308 1.0 3.0 0.00 0.00 0.00 70 1008.8
20260504235204 78 272 1.0 5.0 0.00 0.00 0.00 70 1008.7
20260504233704 78 266 1.0 3.0 0.00 0.00 0.00 70 1009.0
20260504233204 78 282 1.0 3.0 0.00 0.00 0.00 70 1009.0
20260504232704 78 339 1.0 5.0 0.00 0.00 0.00 69 1008.9
20260504232204 78 264 1.0 2.0 0.00 0.00 0.00 70 1009.0
20260504231704 78 310 1.0 7.0 0.00 0.00 0.00 69 1009.1
20260504231205 78 307 1.0 3.0 0.00 0.00 0.00 68 1009.0
20260504230704 79 289 1.0 5.0 0.00 0.00 0.00 68 1009.1
20260504230204 79 297 1.0 2.0 0.00 0.00 0.00 68 1009.1
20260504225704 79 303 1.0 3.0 0.00 0.00 0.00 68 1009.3
20260504225204 78 285 1.0 3.0 0.00 0.00 0.00 68 1009.2
20260504224703 79 327 1.0 3.0 0.00 0.00 0.00 68 1009.4
20260504224204 79 338 1.0 3.0 0.00 0.00 0.00 68 1009.3
20260504223705 79 348 1.0 3.0 0.00 0.00 0.00 67 1009.3
20260504223203 79 347 1.0 3.0 0.00 0.00 0.00 67 1009.4
20260504222704 79 293 2.0 3.0 0.00 0.00 0.00 66 1009.6
20260504222204 79 33 1.0 3.0 0.00 0.00 0.00 66 1009.6
20260504221204 79 73 1.0 2.0 0.00 0.00 0.00 66 1009.7
20260504220704 79 278 1.0 2.0 0.00 0.00 0.00 66 1009.7
20260504220204 79 325 1.0 3.0 0.00 0.00 0.00 66 1009.8
20260504215704 80 282 2.0 3.0 0.00 0.00 0.00 65 1009.8
20260504215205 80 314 2.0 5.0 0.00 0.00 0.00 64 1009.7
20260504214705 80 317 1.0 3.0 0.00 0.00 0.00 64 1009.9
20260504214205 80 249 1.0 3.0 0.00 0.00 0.00 63 1009.9
20260504213704 80 293 1.0 5.0 0.00 0.00 0.00 62 1010.0
20260504213205 80 302 1.0 2.0 0.00 0.00 0.00 63 1009.9
20260504212204 81 217 1.0 5.0 0.00 0.00 0.00 61 1010.0
20260504211204 81 346 1.0 3.0 0.00 0.00 0.00 61 1010.1
20260504210704 81 329 1.0 6.0 0.00 0.00 0.00 61 1010.1
20260504210204 81 272 1.0 5.0 0.00 0.00 0.00 61 1010.2
20260504205704 82 271 1.0 3.0 0.00 0.00 0.00 60 1010.4
20260504205204 82 263 1.0 5.0 0.00 0.00 0.00 60 1010.4
20260504204704 82 223 1.0 3.0 0.00 0.00 0.00 59 1010.3
20260504204204 82 343 2.0 3.0 0.00 0.00 0.00 59 1010.4
20260504202704 82 340 1.0 2.0 0.00 0.00 0.00 59 1010.6
20260504201705 83 9 1.0 5.0 0.00 0.00 0.00 57 1010.8
20260504201204 83 244 1.0 5.0 0.00 0.00 0.00 58 1010.9